Location: Melara
(45.0500°N, 11.1833°E)
Time: 20:18:05
(UTC+00:00)

Cosmos 614 Rocket - Visible Passes

Search period start: 27 September 2022 00:00
Search period end: 07 October 2022 00:00
Orbit: 733 x 762 km, 74.1° (Epoch: 27 September)

Date Brightness Start Highest point End Pass type
(mag) Time Alt. Az. Time Alt. Az. Time Alt. Az.
27 Sep 6.8 00:32:17 10° NNE 00:33:00 12° NNE 00:33:00 12° NNE visible
27 Sep 6.5 02:12:40 10° NNW 02:12:45 10° NNW 02:12:45 10° NNW visible
28 Sep 6.8 17:49:55 10° WNW 17:52:22 13° NW 17:54:49 10° NNW visible
01 Oct 6.8 17:22:45 10° WNW 17:24:41 12° NW 17:26:38 10° NNW visible
